YC0TBU-11 Weather Reports


time (UTC)temp
F
wind
direction
speed
knots
gust
knots
rain 1hr
in
rain 24hr
in
rain mn
in
humidity
%
barometer
mb
20260508235050 97 0.0 0.0 0.00 0.00 0.00 45 1011.4
20260508232055 98 0.0 0.0 0.00 0.00 0.00 44 1011.2
20260508225017 97 0.0 0.0 0.00 0.00 0.00 45 1010.7
20260508222016 97 0.0 0.0 0.00 0.00 0.00 46 1010.4
20260508215017 98 0.0 0.0 0.00 0.00 0.00 45 1010.2
20260508212016 98 0.0 0.0 0.00 0.00 0.00 45 1010.1
20260508205016 98 0.0 0.0 0.00 0.00 0.00 45 1010.3
20260508201943 98 0.0 0.0 0.00 0.00 0.00 45 1010.5
20260508194943 98 0.0 0.0 0.00 0.00 0.00 46 1010.3
20260508191943 97 0.0 0.0 0.00 0.00 0.00 47 1010.5
20260508184943 96 0.0 0.0 0.00 0.00 0.00 48 1010.8
20260508181942 96 0.0 0.0 0.00 0.00 0.00 48 1011.0
20260508174948 97 0.0 0.0 0.00 0.00 0.00 48 1011.1
20260508171925 97 0.0 0.0 0.00 0.00 0.00 48 1011.3
20260508164926 97 0.0 0.0 0.00 0.00 0.00 47 1011.4
20260508161852 97 0.0 0.0 0.00 0.00 0.00 48 1011.8
20260508154852 97 0.0 0.0 0.00 0.00 0.00 48 1011.8
20260508151857 98 0.0 0.0 0.00 0.00 0.00 48 1011.7
20260508144835 97 0.0 0.0 0.00 0.00 0.00 49 1011.8
20260508141835 97 0.0 0.0 0.00 0.00 0.00 48 1011.6
20260508134834 98 0.0 0.0 0.00 0.00 0.00 47 1011.4
20260508131834 98 0.0 0.0 0.00 0.00 0.00 48 1011.4
20260508124801 98 0.0 0.0 0.00 0.00 0.00 47 1011.2
20260508121801 99 0.0 0.0 0.00 0.00 0.00 46 1010.8
20260508114801 99 0.0 0.0 0.00 0.00 0.00 47 1010.1
20260508111801 99 0.0 0.0 0.00 0.00 0.00 46 1009.4
20260508104801 99 0.0 0.0 0.00 0.00 0.00 46 1009.2
20260508101801 100 0.0 0.0 0.00 0.00 0.00 45 1008.9
20260508094801 100 0.0 0.0 0.00 0.00 0.00 46 1008.7
20260508091801 100 0.0 0.0 0.00 0.00 0.00 45 1008.5
20260508084801 99 0.0 0.0 0.00 0.00 0.00 45 1008.7
20260508081801 105 0.0 0.0 0.00 0.00 0.00 37 1008.5
20260508074801 106 0.0 0.0 0.00 0.00 0.00 35 1008.3
20260508071806 107 0.0 0.0 0.00 0.00 0.00 34 1008.5
20260508064743 107 0.0 0.0 0.00 0.00 0.00 33 1008.7
20260508061744 107 0.0 0.0 0.00 0.00 0.00 32 1009.0
20260508054743 107 0.0 0.0 0.00 0.00 0.00 32 1009.2
20260508051743 106 0.0 0.0 0.00 0.00 0.00 34 1009.6
20260508044743 103 0.0 0.0 0.00 0.00 0.00 37 1010.1
20260508041743 103 0.0 0.0 0.00 0.00 0.00 37 1010.3
20260508034743 102 0.0 0.0 0.00 0.00 0.00 39 1010.7
20260508031743 101 0.0 0.0 0.00 0.00 0.00 40 1011.2
20260508024743 101 0.0 0.0 0.00 0.00 0.00 41 1011.4
20260508021743 99 0.0 0.0 0.00 0.00 0.00 42 1011.5
20260508014743 99 0.0 0.0 0.00 0.00 0.00 42 1011.4
20260508011743 95 0.0 0.0 0.00 0.00 0.00 46 1011.3
20260508004743 97 0.0 0.0 0.00 0.00 0.00 44 1011.1
20260508001743 96 0.0 0.0 0.00 0.00 0.00 44 1010.7